Hyalite Weather Station

This weather station provides temperature, wind speed, gust or max wind speed, and wind direction at 9982ft near the summit of Flanders Mountain. This data can be used with temperature and precipitation data from the Shower Falls SNOTEL site. If the data has not been updated recently you can view it directly on datagarrison.com

Elevation
9982ft
Jump to table bottom
Date Time Temperature
deg F
RH, % Wind Speed Wind Gust Wind Direction
01/27/20 15:00 12.8 93 5 9 W - 260
01/27/20 14:00 12.7 93 7 12 W - 257
01/27/20 13:00 12.8 93 7 12 W - 261
01/27/20 12:00 12.6 93 7 13 W - 263
01/27/20 11:00 13.4 94 7 13 W - 264
01/27/20 10:00 13.8 94 7 15 W - 267
01/27/20 09:00 13.6 94 8 15 W - 268
01/27/20 08:00 13.0 94 10 17 W - 274
01/27/20 07:00 13.4 94 10 17 W - 270
01/27/20 06:00 14.5 94 10 19 W - 268
01/27/20 05:00 14.0 94 10 16 W - 275
01/27/20 04:00 14.9 95 8 17 W - 278
01/27/20 03:00 17.1 95 7 14 W - 271
01/27/20 02:00 18.2 95 6 10 W - 279
01/27/20 01:00 18.0 95 5 13 W - 288
01/27/20 00:00 18.5 96 7 12 W - 291
01/26/20 23:00 20.6 96 7 14 W - 281
01/26/20 22:00 21.5 96 8 14 W - 260
01/26/20 21:00 21.6 96 7 12 W - 254
01/26/20 20:00 22.0 96 9 16 W - 256
01/26/20 19:00 22.0 96 11 19 SW - 246
01/26/20 18:00 22.1 96 15 26 SW - 234
01/26/20 17:00 22.5 96 14 21 SW - 234
01/26/20 16:00 22.9 96 10 18 SW - 240
01/26/20 15:00 23.0 92 9 16 SW - 241
01/26/20 14:00 23.2 77 9 15 SW - 243
01/26/20 13:00 23.8 71 11 21 W - 250
01/26/20 12:00 23.2 52 10 17 W - 256
01/26/20 11:00 23.4 39 12 18 W - 260
01/26/20 10:00 21.4 39 11 18 W - 254
01/26/20 09:00 20.4 46 10 16 W - 251
01/26/20 08:00 19.9 52 13 21 W - 250
01/26/20 07:00 17.1 69 13 20 W - 253
01/26/20 06:00 17.2 70 12 20 W - 250
01/26/20 05:00 16.8 75 13 20 W - 253
01/26/20 04:00 15.7 84 13 20 W - 251
01/26/20 03:00 15.6 90 15 22 W - 253
01/26/20 02:00 15.7 94 16 24 W - 254
01/26/20 01:00 16.9 91 14 27 W - 254
01/26/20 00:00 17.7 91 14 26 W - 261
01/25/20 23:00 18.2 88 18 30 W - 258
01/25/20 22:00 18.1 87 23 34 W - 257
01/25/20 21:00 18.1 89 21 31 W - 256
01/25/20 20:00 18.1 89 21 34 W - 261
01/25/20 19:00 17.7 91 19 32 W - 261
01/25/20 18:00 17.5 92 17 34 W - 254
01/25/20 17:00 16.8 93 16 27 W - 251
01/25/20 16:00 15.1 88 12 21 SW - 246
01/25/20 15:00 16.2 77 16 25 W - 250
01/25/20 14:00 18.0 74 10 20 SW - 239